Date String (YYYY-MM-DD hh:mm:ss) UTC,Instrument flags,Ambient pressure (hPa),Sample flow (lpm),Bypass flow (lpm),Sample temperature (°C),Ambient temperature (°C),ASC tube jacket temperature (°C),LED temperature (°C),Box temperature (°C),Sample RH (%),Span deviation,Mass concentration (μg/m³),Mass concentration (μg/m³),Mass concentration (μg/m³)
DateTimeUTC,F1_M11,P_M11,Q1_M11,Q2_M11,T1_M11,T2_M11,T3_M11,T4_M11,T5_M11,U1_M11,ZSPAN_M11,X0_M11,X2_M11,X1_M11
2022-11-12 22:00:00,,0825.2,5.00,0.00,25.2,24.0,00.0,34.0,27.1,07.8,0002.1,0014.88,0008.71,0008.05
2022-11-12 22:01:00,,0825.2,5.00,0.00,25.2,24.0,00.0,34.0,27.2,07.8,0001.3,0015.09,0008.72,0008.04
2022-11-12 22:02:00,,0825.2,5.00,0.00,25.2,24.0,00.0,34.0,27.2,07.8,0001.3,0015.32,0008.77,0008.05
2022-11-12 22:03:00,,0825.2,5.00,0.00,25.2,24.0,00.0,34.0,27.2,07.7,0001.0,0014.75,0008.74,0008.06
2022-11-12 22:04:00,,0825.2,5.00,0.00,25.3,24.0,00.0,34.0,27.2,07.8,0001.0,0014.92,0008.73,0008.08
2022-11-12 22:05:00,,0825.2,5.01,0.00,25.3,24.1,00.0,34.0,27.2,07.8,0000.8,0014.84,0008.72,0008.08
2022-11-12 22:06:00,,0825.2,5.01,0.00,25.3,24.0,00.0,34.0,27.2,07.8,0000.5,0014.99,0008.70,0008.08
2022-11-12 22:07:00,,0825.2,5.01,0.00,25.3,24.0,00.0,34.0,27.2,07.8,0000.9,0015.00,0008.74,0008.11
2022-11-12 22:08:00,,0825.1,5.00,0.00,25.3,24.0,00.0,34.0,27.2,07.8,0001.1,0014.97,0008.76,0008.13
2022-11-12 22:09:00,,0825.1,5.00,0.00,25.3,24.0,00.0,34.0,27.2,07.8,0001.3,0014.88,0008.78,0008.16
2022-11-12 22:10:00,,0825.1,4.99,0.00,25.3,23.9,00.0,34.0,27.2,07.8,0001.2,0015.01,0008.78,0008.19
2022-11-12 22:11:00,,0825.1,4.99,0.00,25.3,23.9,00.0,34.0,27.2,07.8,0000.9,0015.15,0008.81,0008.21
2022-11-12 22:12:00,,0825.1,5.00,0.00,25.2,23.9,00.0,34.0,27.1,07.8,0001.6,0015.24,0008.87,0008.24
2022-11-12 22:13:00,,0825.1,5.00,0.00,25.2,23.9,00.0,34.0,27.1,07.9,0002.4,0015.22,0008.90,0008.26
2022-11-12 22:14:00,,0825.1,5.01,0.00,25.2,24.0,00.0,34.0,27.2,07.9,0002.6,0015.31,0008.99,0008.30
2022-11-12 22:15:00,,0825.0,5.00,0.00,25.3,24.0,00.0,34.0,27.2,08.0,0002.6,0014.82,0009.01,0008.34
2022-11-12 22:16:00,,0825.0,4.99,0.00,25.3,24.0,00.0,34.0,27.2,07.9,0003.1,0014.66,0009.05,0008.38
2022-11-12 22:17:00,,0825.1,5.01,0.00,25.3,24.0,00.0,34.0,27.2,08.0,0003.9,0014.49,0009.13,0008.42
2022-11-12 22:18:00,,0825.1,5.01,0.00,25.3,24.0,00.0,34.0,27.2,07.9,0003.8,0014.61,0009.17,0008.44
2022-11-12 22:19:00,,0825.0,5.00,0.00,25.3,24.1,00.0,34.0,27.2,08.0,0003.2,0014.71,0009.25,0008.48
2022-11-12 22:20:00,,0825.1,5.00,0.00,25.3,24.1,00.0,34.0,27.2,08.0,0003.0,0014.56,0009.27,0008.50
2022-11-12 22:21:00,,0825.0,5.00,0.00,25.3,24.1,00.0,34.0,27.2,08.0,0003.4,0014.27,0009.29,0008.52
2022-11-12 22:22:00,,0825.1,4.99,0.00,25.3,24.1,00.0,34.0,27.2,08.0,0003.6,0014.27,0009.32,0008.54
2022-11-12 22:23:00,,0825.0,5.00,0.00,25.3,24.1,00.0,34.0,27.3,07.9,0003.2,0014.18,0009.34,0008.57
2022-11-12 22:24:00,,0825.0,5.00,0.00,25.3,24.1,00.0,34.1,27.3,07.9,0001.6,0014.24,0009.33,0008.58
2022-11-12 22:25:00,,0825.0,4.99,0.00,25.3,24.1,00.0,34.1,27.2,07.9,0000.9,0015.06,0009.30,0008.57
2022-11-12 22:26:00,,0825.0,5.01,0.00,25.3,24.1,00.0,34.1,27.3,07.9,0001.1,0015.12,0009.32,0008.57
2022-11-12 22:27:00,,0825.0,5.01,0.00,25.3,24.1,00.0,34.1,27.3,07.9,0001.3,0015.13,0009.30,0008.55
2022-11-12 22:28:00,,0825.0,5.00,0.00,25.4,24.1,00.0,34.1,27.3,07.9,0001.3,0015.38,0009.31,0008.54
2022-11-12 22:29:00,,0825.0,5.00,0.00,25.4,24.1,00.0,34.1,27.3,08.0,0001.5,0015.39,0009.29,0008.54
2022-11-12 22:30:00,,0825.0,5.00,0.00,25.4,24.2,00.0,34.1,27.3,08.0,0001.4,0015.33,0009.22,0008.52
2022-11-12 22:31:00,,0825.0,4.99,0.00,25.4,24.2,00.0,34.1,27.3,07.9,0001.6,0015.19,0009.21,0008.50
2022-11-12 22:32:00,,0825.0,5.00,0.00,25.4,24.2,00.0,34.1,27.3,07.9,0002.1,0014.82,0009.22,0008.49
2022-11-12 22:33:00,,0824.9,5.00,0.00,25.4,24.2,00.0,34.1,27.3,07.9,0002.3,0014.57,0009.18,0008.47
2022-11-12 22:34:00,,0824.9,5.01,0.00,25.4,24.2,00.0,34.1,27.4,07.9,0002.4,0014.51,0009.15,0008.46
2022-11-12 22:35:00,,0824.9,4.99,0.00,25.4,24.2,00.0,34.1,27.3,07.9,0003.1,0015.11,0009.17,0008.45
2022-11-12 22:36:00,,0824.9,4.99,0.00,25.4,24.2,00.0,34.1,27.4,07.9,0003.0,0014.68,0009.18,0008.44
2022-11-12 22:37:00,,0824.9,5.00,0.00,25.4,24.2,00.0,34.1,27.4,07.9,0002.8,0015.32,0009.18,0008.43
2022-11-12 22:38:00,,0824.9,5.00,0.00,25.5,24.2,00.0,34.2,27.4,07.9,0002.9,0015.51,0009.18,0008.42
2022-11-12 22:39:00,,0824.9,5.00,0.00,25.5,24.2,00.0,34.2,27.4,07.9,0002.0,0015.43,0009.16,0008.41
2022-11-12 22:40:00,,0824.9,5.01,0.00,25.5,24.2,00.0,34.2,27.4,07.9,0001.8,0015.24,0009.12,0008.38
2022-11-12 22:41:00,,0824.9,5.00,0.00,25.5,24.2,00.0,34.2,27.4,07.9,0002.3,0015.24,0009.08,0008.37
2022-11-12 22:42:00,,0824.9,5.01,0.00,25.5,24.2,00.0,34.2,27.4,07.9,0002.1,0015.44,0009.07,0008.36
2022-11-12 22:43:00,,0825.0,5.01,0.00,25.5,24.2,00.0,34.2,27.4,07.8,0001.8,0015.94,0009.06,0008.33
2022-11-12 22:44:00,,0825.0,5.00,0.00,25.5,24.2,00.0,34.2,27.5,07.9,0001.4,0016.56,0009.08,0008.32
2022-11-12 22:45:00,,0825.0,5.00,0.00,25.5,24.2,00.0,34.2,27.4,07.8,0002.4,0017.31,0009.07,0008.31
2022-11-12 22:46:00,,0825.0,5.00,0.00,25.5,24.2,00.0,34.2,27.5,07.9,0002.1,0016.78,0009.03,0008.29
2022-11-12 22:47:00,,0825.0,5.00,0.00,25.5,24.3,00.0,34.2,27.5,07.8,0002.3,0016.78,0008.99,0008.27
2022-11-12 22:48:00,,0825.0,5.00,0.00,25.5,24.3,00.0,34.2,27.5,07.8,0002.6,0016.15,0008.94,0008.25
2022-11-12 22:49:00,,0825.0,4.99,0.00,25.5,24.3,00.0,34.2,27.5,07.8,0002.2,0016.08,0008.96,0008.26
2022-11-12 22:50:00,,0825.0,5.00,0.00,25.6,24.3,00.0,34.2,27.5,07.8,0002.3,0016.88,0008.97,0008.25
2022-11-12 22:51:00,,0825.0,5.00,0.00,25.6,24.3,00.0,34.3,27.5,07.7,0002.1,0017.12,0009.01,0008.26
2022-11-12 22:52:00,,0825.0,5.01,0.00,25.6,24.3,00.0,34.3,27.5,07.7,0001.7,0017.06,0009.05,0008.25
2022-11-12 22:53:00,,0825.0,5.00,0.00,25.6,24.3,00.0,34.3,27.5,07.8,0001.8,0017.03,0009.09,0008.26
2022-11-12 22:54:00,,0825.0,4.99,0.00,25.6,24.3,00.0,34.3,27.5,07.8,0001.7,0016.47,0009.06,0008.26
2022-11-12 22:55:00,,0825.1,4.99,0.00,25.6,24.3,00.0,34.3,27.5,07.8,0001.9,0016.11,0009.04,0008.25
2022-11-12 22:56:00,,0825.0,5.00,0.00,25.6,24.3,00.0,34.3,27.5,07.8,0000.6,0015.84,0009.05,0008.24
2022-11-12 22:57:00,,0825.1,5.00,0.00,25.6,24.3,00.0,34.3,27.5,07.8,-000.0,0015.84,0009.07,0008.22
2022-11-12 22:58:00,,0825.1,5.00,0.00,25.6,24.3,00.0,34.3,27.5,07.8,0000.2,0015.28,0009.08,0008.23
2022-11-12 22:59:00,,0825.1,5.01,0.00,25.6,24.3,00.0,34.3,27.5,07.8,0000.4,0015.38,0009.11,0008.23
